#timestamp,LO_Frequency,Hit 
1501290015.1,286047010.4,N
1501290035.8,286047011.3,N
1501290055.7,286047011.0,N
1501290075.5,286047014.9,N
1501290095.3,286047014.4,N
1501290115.2,286047017.2,N
1501290135.9,286047014.3,N
1501290155.7,286047012.1,N
1501290175.5,286047012.1,N
1501290195.4,286047011.8,N
1501290215.2,286047017.2,N
1501290235.0,286047014.8,N
1501290235.9,286047014.8,N
1501290255.8,286047017.1,N
1501290275.6,286047012.9,N
1501290295.4,286047012.7,N
1501290315.3,286047013.7,N
1501290335.1,286047011.0,N
1501290355.8,286047012.1,N
1501290375.7,286047011.2,N
1501290395.5,286047013.9,N
1501290415.3,286047013.7,N
1501290435.2,286047010.9,N
1501290455.9,286047012.6,N
1501290475.7,286047013.3,N
1501290495.6,286047011.0,N
1501290515.4,286047013.8,N
1501290535.2,286047015.1,N
1501290555.0,286047014.7,N
1501290556.0,286047014.7,N
1501290575.8,286047012.8,N
1501290595.6,286047014.8,N
1501290615.4,286047013.2,N
1501290635.3,286047013.0,N
1501290655.1,286047015.2,N
1501290675.8,286047016.3,N
1501290695.7,286047015.9,N
1501290715.5,286047014.9,N
1501290735.3,286047012.8,N
1501290755.2,286047013.4,N
1501290775.9,286047013.9,N
1501290795.7,286047013.2,N
1501290815.6,286047013.2,N
1501290835.4,286047016.6,N
1501290855.2,286047014.7,N
1501290875.0,286047013.8,N
1501290875.9,286047013.8,N
1501290895.8,286047011.5,N
1501290915.6,286047012.3,N
1501290935.4,286047008.6,N
1501290955.3,286047008.9,N
1501290975.1,286047008.6,N
1501290976.0,286047008.6,N
1501290995.8,286047010.6,N
1501291015.7,286047010.3,N
1501291035.5,286047008.4,N
1501291055.3,286047005.6,N
1501291075.2,286047005.6,N
1501291095.9,286047007.1,N
1501291115.7,286047005.8,N
1501291135.6,286047001.4,N
1501291155.4,286047003.8,N
1501291175.2,286047005.9,N
1501291195.0,286047005.3,N
1501291195.9,286047005.3,N
1501291215.8,286047005.1,N
1501291235.6,286047005.6,N
1501291255.4,286047004.8,N
1501291275.3,286047003.7,N
1501291295.1,286047002.3,N
1501291315.8,286047002.4,N
1501291335.7,286047002.1,N
1501291355.5,286047002.1,N
1501291375.3,286047001.6,N
1501291395.2,286047000.4,N
1501291415.9,286046998.9,N
1501291435.7,286046998.4,N
1501291455.6,286047000.5,N
1501291475.4,286047002.5,N
1501291495.2,286047000.2,N
1501291515.1,286046998.9,N
1501291516.0,286046998.9,N
1501291535.8,286047000.9,N
1501291555.6,286047004.4,N
1501291575.5,286047004.1,N
1501291595.3,286047003.7,N
1501291615.1,286047003.6,N
1501291635.8,286047002.1,N
1501291655.7,286047003.4,N
1501291675.5,286047005.2,N
1501291695.3,286047005.2,N
1501291715.2,286047001.4,N
1501291735.9,286047004.1,N
1501291755.7,286047002.0,N
1501291775.6,286047001.7,N
1501291795.4,286047005.6,N
1501291815.2,286047002.9,N
1501291835.1,286047009.1,N
1501291836.0,286047009.1,N
1501291855.8,286047010.4,N
1501291875.6,286047009.0,N
1501291895.4,286047009.0,N
1501291915.3,286047007.9,N
1501291935.1,286047012.3,N
1501291955.8,286047010.5,N
1501291975.7,286047010.8,N
1501291995.5,286047009.2,N
1501292015.3,286047008.2,N
1501292035.2,286047009.8,N
1501292055.9,286047006.1,N
1501292075.7,286047007.8,N
1501292095.6,286047006.9,N
1501292115.4,286047002.9,N
1501292135.2,286047005.7,N
1501292155.0,286047008.6,N
1501292156.0,286047008.6,N
1501292175.8,286047008.3,N
1501292195.6,286047008.6,N
1501292215.4,286047009.1,N
1501292235.3,286047009.0,N
1501292255.1,286047009.5,N
1501292275.8,286047009.8,N
1501292295.7,286047010.5,N
1501292315.5,286047012.0,N
1501292335.3,286047010.9,N
1501292355.2,286047012.1,N
1501292375.9,286047012.1,N
1501292395.7,286047013.1,N
1501292415.6,286047013.2,N
1501292435.4,286047011.3,N
1501292455.2,286047011.6,N
1501292475.0,286047010.5,N
1501292475.9,286047010.5,N
1501292495.8,286047010.4,N
1501292515.6,286047010.2,N
1501292535.4,286047009.3,N
1501292555.3,286047012.2,N
1501292575.1,286047013.6,N
1501292576.0,286047013.6,N
1501292595.8,286047011.9,N
1501292615.7,286047012.1,N
1501292635.5,286047009.8,N
1501292655.3,286047010.5,N
1501292675.2,286047015.0,N
1501292695.9,286047011.1,N
1501292715.7,286047012.6,N
1501292735.5,286047014.5,N
1501292755.4,286047016.0,N
1501292775.2,286047018.6,Y
1501292795.0,286047007.4,N
1501292796.0,286047007.4,N
1501292815.8,286047007.1,N
1501292835.6,286047004.7,N
1501292855.4,286047003.8,N
1501292875.3,286047005.6,N
1501292895.1,286047005.9,N
1501292915.8,286047003.2,N
1501292935.7,286047001.4,N
1501292955.5,286047003.8,N
1501292975.3,286047005.0,N
1501292995.2,286047006.0,N
1501293015.9,286047004.7,N
1501293035.7,286047005.9,N
1501293055.5,286047005.7,N
1501293075.4,286047005.2,N
1501293095.2,286047001.8,N
1501293115.0,286047002.3,N
1501293115.9,286047002.3,N
1501293135.8,286047003.3,N
1501293155.6,286047004.5,N
1501293175.4,286047006.2,N
1501293195.3,286047005.7,N
1501293215.1,286047004.7,N
1501293216.0,286047004.7,N
1501293235.8,286047005.1,N
1501293255.7,286047005.2,N
1501293275.5,286047010.3,N
1501293295.3,286047010.2,N
1501293315.2,286047009.5,N
1501293335.9,286047010.6,N
1501293355.7,286047008.1,N
1501293375.5,286047009.3,N
1501293395.4,286047009.3,N
1501293415.2,286047008.0,N
1501293435.0,286047008.0,N
1501293435.9,286047008.0,N
1501293455.8,286047009.2,N
1501293475.6,286047007.0,N
1501293495.4,286047006.5,N
1501293515.3,286047005.7,N
1501293535.1,286047004.9,N
1501293536.0,286047004.9,N
1501293555.8,286047005.0,N
1501293575.7,286047003.2,N
1501293595.5,286047003.2,N
